This is the latest recevied weather packets stored in our database for station/object WE8L. If no packets are shown the sender has not sent any weather packets the latest 1 day(s).
| Time | Temp. | Humidity | Pressure | Rain* | Wind** | Luminosity | Snow |
|---|---|---|---|---|---|---|---|
| 1778084978 | 13.89° C | 59% | 1015.9 hPa | 0 mm | - | 195 W/m² | - |
| 1778083466 | 13.33° C | 61% | 1015.7 hPa | 0 mm | - | 125 W/m² | - |
| 1778082861 | 12.78° C | 65% | 1015.9 hPa | 0 mm | - | 84 W/m² | - |
| 1778079017 | 11.11° C | 70% | 1015 hPa | 0 mm | - | 510 W/m² | - |
| 1778078411 | 11.11° C | 74% | 1014.8 hPa | 0 mm | - | 206 W/m² | - |
| 1778077504 | 10° C | 76% | 1014.6 hPa | 0 mm | - | 106 W/m² | - |
| 1778076598 | 9.44° C | 82% | 1014.8 hPa | 0 mm | - | 81 W/m² | - |
| 1778075384 | 9.44° C | 87% | 1014.7 hPa | 0 mm | - | 95 W/m² | - |
| 1778074475 | 8.33° C | 89% | 1014.7 hPa | 0 mm | - | 82 W/m² | - |
| 1778073566 | 7.78° C | 91% | 1014.4 hPa | 0 mm | - | 59 W/m² | - |
| 1778072354 | 7.78° C | 93% | 1014.6 hPa | 0 mm | - | 36 W/m² | - |
| 1778072052 | 7.78° C | 93% | 1014.5 hPa | 0 mm | - | 33 W/m² | - |
| 1778071750 | 7.78° C | 94% | 1014.5 hPa | 0 mm | - | 35 W/m² | - |
| 1778071447 | 7.78° C | 95% | 1014 hPa | 0 mm | - | 47 W/m² | - |
| 1778070236 | 7.22° C | 97% | 1014 hPa | 0 mm | - | 50 W/m² | - |
| 1778069935 | 7.22° C | 97% | 1013.9 hPa | 0 mm | - | 38 W/m² | - |
| 1778069026 | 6.67° C | 98% | 1013.4 hPa | 0 mm | - | 37 W/m² | - |
| 1778068723 | 6.67° C | 98% | 1013.5 hPa | 0 mm | - | 37 W/m² | - |
| 1778067515 | 6.67° C | 98% | 1012.8 hPa | 0 mm | - | 23 W/m² | - |
| 1778067212 | 6.67° C | 98% | 1012.5 hPa | 0 mm | - | 13 W/m² | - |
| 1778066606 | 6.67° C | 99% | 1012.3 hPa | 0 mm | - | 22 W/m² | - |
| 1778065092 | 6.67° C | 99% | 1012.7 hPa | 0 mm | - | 3 W/m² | - |
| 1778064789 | 6.67° C | 99% | 1012.6 hPa | 0 mm | - | 3 W/m² | - |
| 1778064184 | 6.11° C | 99% | 1011.9 hPa | 0 mm | - | 2 W/m² | - |
| 1778063579 | 6.11° C | 99% | 1012 hPa | 0 mm | - | 1 W/m² | - |
* Rain latest hour (hover to see other rain measurements)
** Current wind speed in m/s (hover to see current wind gust speed)